Weather History for KGNV - February, 2013

Change the Weather History Date:

Tuesday, February 12, 2013

  Actual Average Record
Temperature  
Mean Temperature 74 °F 57 °F  
Max Temperature 83 °F 69 °F 84 °F (1927)
Min Temperature 64 °F 45 °F 25 °F (1926)
Degree Days  
Heating Degree Days 0 9  
Month to date heating degree days 78 113  
Since 1 July heating degree days 622 915  
Cooling Degree Days 9 1  
Month to date cooling degree days 17 8  
Year to date cooling degree days 77 20  
Growing Degree Days 23 (Base 50)    
Moisture  
Dew Point 64 °F    
Average Humidity 74    
Maximum Humidity 100    
Minimum Humidity 47    
Precipitation  
Precipitation 0.00 in 0.11 in 1.89 in (1967)
Month to date precipitation 0.29 1.33  
Year to date precipitation 0.62 4.64  
Snow  
Snow 0.00 in 0.00 in 0.00 in ()
Month to date snowfall 0.0 0.0  
Since 1 July snowfall 0.0 0.0  
Snow Depth 0.00 in    
Sea Level Pressure  
Sea Level Pressure 30.02 in    
Wind  
Wind Speed 8 mph (SSW)    
Max Wind Speed 17 mph    
Max Gust Speed 28 mph    
Visibility 7 miles    
Events Fog    
T = Trace of Precipitation, MM = Missing Value Source: NWS Daily Summary

Daily Weather History Graph

Daily Weather History Graph

Search for Another Location

Airport or City:

Trip Planner

Search our weather history database for the weather conditions in past years. The results will help you decide how hot, cold, wet, or windy it might be!

Date:

Astronomy

Feb. 12, 2013 Rise Set
Actual Time 7:10 AM EST 6:16 PM EST
Civil Twilight 6:46 AM EST 6:40 PM EST
Nautical Twilight 6:18 AM EST 7:08 PM EST
Astronomical Twilight 5:50 AM EST 7:36 PM EST
Moon 8:23 AM EST (2/12) 8:57 PM EST (2/12)
Length of Visible Light 11h 54m
Length of Day
11h 05m
Waxing Crescent, 7% of the Moon is Illuminated
Feb 12
Waxing Crescent
Feb 17
First Quarter
Feb 25
Full
Mar 4
Last Quarter
Mar 11
New

Hourly Weather History & Observations

Time (EST) Temp. Heat Index Dew Point Humidity Pressure Visibility Wind Dir Wind Speed Gust Speed Precip Events Conditions
12:53 AM 66.0 °F - 63.0 °F 90% 30.08 in 10.0 mi WSW 6.9 mph - N/A   Clear
1:53 AM 64.9 °F - 63.0 °F 93% 30.07 in 10.0 mi SW 6.9 mph - N/A   Clear
2:19 AM 64.4 °F - 62.6 °F 94% 30.07 in 9.0 mi SW 4.6 mph - N/A   Mostly Cloudy
2:53 AM 64.9 °F - 63.0 °F 93% 30.06 in 9.0 mi SW 4.6 mph - N/A   Mostly Cloudy
3:04 AM 64.4 °F - 64.4 °F 100% 30.07 in 7.0 mi SSW 4.6 mph - N/A   Overcast
3:20 AM 64.4 °F - 64.4 °F 100% 30.07 in 1.5 mi South 5.8 mph - N/A   Overcast
3:32 AM 64.4 °F - 64.4 °F 100% 30.07 in 0.5 mi South 4.6 mph - N/A Fog Fog
3:53 AM 64.0 °F - 63.0 °F 96% 30.06 in 0.5 mi South 3.5 mph - N/A Fog Fog
4:04 AM 64.4 °F - 62.6 °F 94% 30.07 in 1.8 mi Calm Calm - N/A   Overcast
4:25 AM 64.4 °F - 62.6 °F 94% 30.06 in 0.8 mi South 4.6 mph - N/A   Mist
4:34 AM 64.4 °F - 62.6 °F 94% 30.06 in 1.5 mi South 5.8 mph - N/A   Overcast
4:53 AM 64.0 °F - 63.0 °F 96% 30.05 in 1.0 mi SSW 4.6 mph - N/A   Overcast
5:02 AM 64.4 °F - 64.4 °F 100% 30.06 in 0.8 mi SSW 3.5 mph - N/A   Mist
5:53 AM 64.9 °F - 64.0 °F 97% 30.06 in 0.8 mi SW 4.6 mph - N/A   Mist
6:04 AM 64.4 °F - 64.4 °F 100% 30.07 in 1.2 mi SSW 5.8 mph - N/A   Overcast
6:27 AM 64.4 °F - 64.4 °F 100% 30.07 in 2.0 mi SSW 5.8 mph - N/A   Overcast
6:53 AM 66.0 °F - 64.9 °F 96% 30.06 in 3.0 mi SSW 6.9 mph - N/A   Overcast
7:53 AM 66.0 °F - 64.9 °F 96% 30.08 in 5.0 mi SSW 6.9 mph - N/A   Overcast
8:21 AM 66.2 °F - 64.4 °F 94% 30.08 in 6.0 mi SSW 9.2 mph - N/A   Overcast
8:53 AM 66.9 °F - 66.0 °F 97% 30.08 in 7.0 mi SSW 8.1 mph - N/A   Overcast
9:01 AM 66.2 °F - 66.2 °F 100% 30.09 in 5.0 mi SSW 9.2 mph - N/A   Overcast
9:40 AM 68.0 °F - 66.2 °F 94% 30.09 in 5.0 mi SSW 5.8 mph - N/A   Overcast
9:53 AM 68.0 °F - 66.0 °F 93% 30.09 in 5.0 mi South 6.9 mph - N/A   Overcast
10:53 AM 70.0 °F - 66.0 °F 87% 30.09 in 10.0 mi SSW 8.1 mph - N/A   Overcast
11:10 AM 71.6 °F - 64.4 °F 78% 30.08 in 10.0 mi SW 8.1 mph 17.3 mph N/A   Overcast
11:53 AM 73.9 °F - 64.0 °F 71% 30.05 in 10.0 mi SW 9.2 mph - N/A   Overcast
12:42 PM 78.8 °F - 64.4 °F 61% 30.03 in 10.0 mi South 11.5 mph - N/A   Mostly Cloudy
12:53 PM 78.1 °F - 64.0 °F 62% 30.01 in 10.0 mi SSW 9.2 mph - N/A   Mostly Cloudy
1:53 PM 80.1 °F 81.1 °F 61.0 °F 52% 29.99 in 10.0 mi SSW 10.4 mph - N/A   Scattered Clouds
2:53 PM 81.0 °F 81.6 °F 60.1 °F 49% 29.95 in 10.0 mi SW 8.1 mph 20.7 mph N/A   Scattered Clouds
3:53 PM 82.0 °F 82.4 °F 60.1 °F 47% 29.94 in 10.0 mi SW 12.7 mph - N/A   Mostly Cloudy
4:53 PM 79.0 °F - 61.0 °F 54% 29.93 in 10.0 mi SW 13.8 mph 19.6 mph N/A   Clear
5:53 PM 75.9 °F - 63.0 °F 64% 29.93 in 10.0 mi SW 9.2 mph 17.3 mph N/A   Mostly Cloudy
6:53 PM 73.0 °F - 64.9 °F 76% 29.92 in 10.0 mi SSW 8.1 mph - N/A   Clear
7:53 PM 72.0 °F - 64.9 °F 78% 29.92 in 10.0 mi SSW 6.9 mph - N/A   Clear
8:53 PM 71.1 °F - 66.0 °F 84% 29.94 in 10.0 mi SSW 10.4 mph - N/A   Partly Cloudy
9:53 PM 70.0 °F - 66.0 °F 87% 29.93 in 10.0 mi SSW 8.1 mph - N/A   Clear
10:53 PM 69.1 °F - 66.0 °F 90% 29.93 in 10.0 mi SSW 10.4 mph - N/A   Scattered Clouds
11:03 PM 69.8 °F - 64.4 °F 83% 29.94 in 10.0 mi SW 10.4 mph - N/A   Mostly Cloudy
11:43 PM 69.8 °F - 64.4 °F 83% 29.91 in 9.0 mi SSW 9.2 mph - N/A   Mostly Cloudy
11:53 PM 69.1 °F - 64.9 °F 87% 29.91 in 8.0 mi SSW 11.5 mph - N/A   Scattered Clouds